Weather in Maloe Lugovoe

Russia / Kaliningrad Oblast     54°39′34″N   20°38′36″E
temp.,
°C
wind,
m/s
gust,
m/s
humid.,
%
clouds,
%
prec.,
mm/h
press.,
hPa
HPBL,
m
17 june, thu
thu1723:00+11ene22829 0.0 102212
02:00+10ese33880 0.0 102231
05:00+10se34920 0.0 102270
08:00+17se34745 0.0 1022296
11:00+21se45635 0.0 1023834
14:00+24sse56566 0.0 10221242
17:00+24se45630 0.0 10211122
20:00+20ese36795 0.0 1021110
18 june, fri
fri1823:00+16sse47883 0.0 1022105
02:00+14sse36920 0.0 102284
05:00+14sse38935 0.0 1022133
08:00+20sse47765 0.0 1022346
11:00+24sse57655 0.0 10211130
14:00+26sse57565 0.0 10201735
17:00+27sse47646 0.0 10191550
20:00+23se498226 0.0 1019207
19 june, sat
sat1923:00+19sse411881 0.0 1020217
02:00+17sse410864 0.0 1019177
05:00+16sse39865 0.0 1019156
08:00+22sse47770 0.0 1019355
11:00+26sse57650 0.0 10191082
14:00+28sse67570 0.0 10171686
17:00+28sse476342 0.0 10161648
20:00+24se4981100 0.2 1016258
20 june, sun
sun2023:00+23sse49725 0.0 1016256
02:00+19sse4118949 0.0 1016216
05:00+20s358853 0.0 1016122
08:00+23s477792 0.0 1016436
11:00+26s4573100 2.1 1016738
14:00+27sse4559100 2.3 10151337
17:00+28se4563100 0.0 10151208
20:00+24e3683100 0.2 1014117
21 june, mon
mon2123:00+20se398576 0.0 1014166
02:00+19sse358862 0.0 101580
05:00+18se389162 0.0 1014147
08:00+23se4776100 0.0 1014366
11:00+27se696497 0.0 10141126
14:00+29sse68543 0.0 10131846
17:00+29se47600 0.0 10131836
20:00+25se38790 0.1 1012189